This is the latest recevied weather packets stored in our database for station/object EA1FBN. If no packets are shown the sender has not sent any weather packets the latest 10 day(s).
| Time | Temp. | Humidity | Pressure | Rain* | Wind** | Luminosity | Snow |
|---|---|---|---|---|---|---|---|
| 1788098639 | 25.56° C | 43% | 1016.9 hPa | 0 mm | - | - | - |
| 1788098339 | 25.56° C | 42% | 1017 hPa | 0 mm | - | - | - |
| 1788098039 | 25.56° C | 42% | 1016.9 hPa | 0 mm | - | - | - |
| 1788097739 | 25.56° C | 42% | 1017 hPa | 0 mm | - | - | - |
| 1788097439 | 25.56° C | 42% | 1017 hPa | 0 mm | - | - | - |
| 1788097139 | 25.56° C | 41% | 1017.1 hPa | 0 mm | - | - | - |
| 1788096839 | 25.56° C | 43% | 1017 hPa | 0 mm | - | - | - |
| 1788096539 | 25.56° C | 44% | 1017.1 hPa | 0 mm | - | - | - |
| 1788096239 | 26.11° C | 44% | 1017.1 hPa | 0 mm | - | - | - |
| 1788095939 | 25.56° C | 45% | 1017.3 hPa | 0 mm | - | - | - |
| 1788095639 | 25.56° C | 45% | 1017.2 hPa | 0 mm | - | - | - |
| 1788095339 | 25.56° C | 46% | 1017.2 hPa | 0 mm | - | - | - |
| 1788095039 | 25.56° C | 44% | 1017.3 hPa | 0 mm | - | - | - |
| 1788094739 | 25.56° C | 45% | 1017.3 hPa | 0 mm | - | - | - |
| 1788094439 | 25.56° C | 49% | 1017.3 hPa | 0 mm | - | - | - |
| 1788094139 | 25° C | 48% | 1017.3 hPa | 0 mm | - | - | - |
| 1788093839 | 25° C | 51% | 1017.3 hPa | 0 mm | - | - | - |
| 1788093539 | 25° C | 51% | 1017.4 hPa | 0 mm | - | - | - |
| 1788093239 | 25° C | 50% | 1017.3 hPa | 0 mm | - | - | - |
| 1788092939 | 25° C | 52% | 1017.4 hPa | 0 mm | - | - | - |
| 1788092639 | 25° C | 50% | 1017.4 hPa | 0 mm | - | - | - |
| 1788092339 | 25° C | 52% | 1017.4 hPa | 0 mm | - | - | - |
| 1788092039 | 25° C | 53% | 1017.5 hPa | 0 mm | - | - | - |
| 1788091739 | 24.44° C | 54% | 1017.5 hPa | 0 mm | - | - | - |
| 1788091440 | 24.44° C | 53% | 1017.6 hPa | 0 mm | - | - | - |
* Rain latest hour (hover to see other rain measurements)
** Current wind speed in m/s (hover to see current wind gust speed)